Location: Unspecified
(41.1637°N, 24.2901°E)
Time: 21:12:22
(UTC+02:00)

ISS - Pass Details

Date: 29 May 2023
Orbit: 411 x 419 km, 51.6° (Epoch: 06 June)

Event Time Altitude Azimuth Distance (km) Brightness Sun altitude
Rises 20:24:10 0° 308° (NW) 2,354 2.8 -6.7°
Reaches altitude 10° 20:26:18 10° 314° (NW) 1,490 0.8 -7.0°
Maximum altitude 20:29:33 48° 31° (NNE) 549 -3.1 -7.5°
Drops below altitude 10° 20:32:49 10° 107° (ESE) 1,488 -1.6 -8.0°
Enters shadow 20:32:54 10° 108° (ESE) 1,521 -1.5 -8.0°
